Location: Dumbr?vi?a
(45.8833°N, 22.7000°E)
Time: 14:35:04
(UTC+00:00)

Cosmos 1503 Rocket - Pass Details

Date: 03 March 2021
Orbit: 753 x 790 km, 74.0° (Epoch: 11 April)

Event Time Altitude Azimuth Distance (km) Brightness Sun altitude
Rises 16:48:16 0° 343° (NNW) 3,232 7.4 -6.0°
Reaches altitude 10° 16:50:49 10° 352° (N) 2,298 6.6 -6.4°
Maximum altitude 16:55:41 39° 61° (ENE) 1,123 4.5 -7.2°
Drops below altitude 10° 17:00:30 10° 130° (SE) 2,274 6.0 -8.1°
Sets 17:02:59 0° 138° (SE) 3,194 6.8 -8.5°
